Weather History for Russell, KS

Change the Weather History Date:

Friday, February 8, 2013

  Actual Average Record
Temperature  
Mean Temperature 34 °F -  
Max Temperature 46 °F 39 °F 74 °F (1954)
Min Temperature 21 °F 16 °F -7 °F (1971)
Degree Days  
Heating Degree Days 32    
Moisture  
Dew Point 27 °F    
Average Humidity 83    
Maximum Humidity 100    
Minimum Humidity 56    
Precipitation  
Precipitation 0.00 in - - ()
Sea Level Pressure  
Sea Level Pressure 30.21 in    
Wind  
Wind Speed 8 mph (SE)    
Max Wind Speed 24 mph    
Max Gust Speed 31 mph    
Visibility 7 miles    
Events Fog    
Averages and records for this station are not official NWS values.
T = Trace of Precipitation, MM = Missing Value Source: NWS Daily Summary

Daily Weather History Graph

Daily Weather History Graph

Search for Another Location

Airport:

Trip Planner

Search our weather history database for the weather conditions in past years. The results will help you decide how hot, cold, wet, or windy it might be!

Date:

Astronomy

Feb. 08, 2013 Rise Set
Actual Time 7:34 AM CST 6:05 PM CST
Civil Twilight 7:06 AM CST 6:32 PM CST
Nautical Twilight 6:35 AM CST 7:04 PM CST
Astronomical Twilight 6:04 AM CST 7:35 PM CST
Moon 6:03 AM CST (2/8) 4:40 PM CST (2/8)
Length of Visible Light 11h 26m
Length of Day
10h 31m
Waning Crescent, 3% of the Moon is Illuminated
Feb 8
Waning Crescent
Feb 10
New
Feb 17
First Quarter
Feb 25
Full
Mar 4
Last Quarter

Hourly Weather History & Observations

Time (CST) Temp. Windchill Dew Point Humidity Pressure Visibility Wind Dir Wind Speed Gust Speed Precip Events Conditions
12:53 AM 34.0 °F 29.8 °F 28.0 °F 79% 30.24 in 10.0 mi SE 4.6 mph - N/A   Clear
1:53 AM 30.9 °F - 27.0 °F 85% 30.25 in 10.0 mi Calm Calm - N/A   Clear
2:53 AM 30.0 °F - 27.0 °F 88% 30.25 in 10.0 mi Calm Calm - N/A   Clear
3:53 AM 28.9 °F 25.2 °F 26.1 °F 89% 30.26 in 10.0 mi SSE 3.5 mph - N/A   Clear
4:53 AM 26.1 °F - 24.1 °F 92% 30.26 in 10.0 mi Calm Calm - N/A   Clear
5:38 AM 24.8 °F 20.5 °F 21.2 °F 86% 30.22 in 2.5 mi SSE 3.5 mph - N/A   Clear
5:45 AM 24.8 °F 20.5 °F 21.2 °F 86% 30.22 in 7.0 mi SSE 3.5 mph - N/A   Clear
5:53 AM 24.1 °F 19.7 °F 23.0 °F 96% 30.26 in 8.0 mi SSE 3.5 mph - N/A   Clear
6:53 AM 25.0 °F - 23.0 °F 92% 30.27 in 6.0 mi North - - N/A   Clear
7:53 AM 21.0 °F 12.4 °F 19.0 °F 92% 30.28 in 5.0 mi East 6.9 mph - N/A   Clear
8:17 AM 21.2 °F 11.7 °F 19.4 °F 93% 30.23 in 1.8 mi East 8.1 mph - N/A   Partly Cloudy
8:24 AM 23.0 °F 13.1 °F 21.2 °F 93% 30.23 in 0.8 mi East 9.2 mph - N/A   Mist
8:53 AM 27.0 °F 18.0 °F 26.1 °F 96% 30.30 in 0.2 mi East 9.2 mph - N/A Fog Light Freezing Fog
9:53 AM 27.0 °F 20.5 °F 26.1 °F 96% 30.32 in 0.2 mi SE 5.8 mph - N/A Fog Light Freezing Fog
10:53 AM 30.0 °F 21.1 °F 30.0 °F 100% 30.30 in 0.2 mi SE 10.4 mph - N/A Fog Light Freezing Fog
11:18 AM 30.2 °F 21.9 °F 30.2 °F 100% 30.24 in 1.5 mi SE 9.2 mph - N/A   Overcast
11:25 AM 32.0 °F 24.2 °F 30.2 °F 93% 30.24 in 3.0 mi ESE 9.2 mph - N/A   Overcast
11:53 AM 32.0 °F 23.6 °F 30.9 °F 96% 30.30 in 9.0 mi ESE 10.4 mph - N/A   Scattered Clouds
12:53 PM 43.0 °F 35.7 °F 30.9 °F 62% 30.22 in 10.0 mi SE 15.0 mph - N/A   Clear
1:53 PM 45.0 °F 37.4 °F 30.9 °F 58% 30.20 in 10.0 mi SSE 18.4 mph - N/A   Clear
2:53 PM 45.0 °F 37.6 °F 30.9 °F 58% 30.16 in 10.0 mi SSE 17.3 mph 25.3 mph N/A   Clear
3:53 PM 46.0 °F 38.0 °F 30.9 °F 56% 30.14 in 10.0 mi SE 21.9 mph - N/A   Clear
4:53 PM 45.0 °F 37.4 °F 30.9 °F 58% 30.13 in 10.0 mi SE 18.4 mph - N/A   Clear
5:53 PM 41.0 °F 32.8 °F 30.0 °F 65% 30.13 in 10.0 mi SE 16.1 mph - N/A   Clear
6:53 PM 37.9 °F 28.5 °F 28.9 °F 70% 30.10 in 10.0 mi SE 17.3 mph - N/A   Clear
7:53 PM 36.0 °F 26.3 °F 30.0 °F 79% 30.10 in 10.0 mi SSE 16.1 mph - N/A   Clear
8:53 PM 35.1 °F 24.8 °F 30.0 °F 82% 30.10 in 10.0 mi SSE 17.3 mph - N/A   Clear
9:53 PM 35.1 °F 24.5 °F 30.0 °F 82% 30.09 in 10.0 mi SSE 18.4 mph - N/A   Clear
10:53 PM 35.1 °F 23.5 °F 30.0 °F 82% 30.07 in 8.0 mi South 21.9 mph 27.6 mph N/A   Clear
11:53 PM 35.1 °F 23.0 °F 30.0 °F 82% 30.04 in 7.0 mi South 24.2 mph 31.1 mph N/A   Clear